Location: Nians�bougou
(13.2321°N, 4.9818°W)
Time: 08:04:17
(UTC+00:00)

Cosmos 2221 - Pass Details

Date: 18 February 2020
Orbit: 593 x 616 km, 82.5° (Epoch: 08 April)

Event Time Altitude Azimuth Distance (km) Brightness Sun altitude
Rises 05:56:24 0° 220° (SW) 2,818 5.6 -11.7°
Enters shadow 05:59:25 10° 245° (WSW) 1,956 4.6 -10.9°
Exits shadow 06:02:53 13° 295° (WNW) 1,760 4.3 -10.1°
Drops below altitude 10° 06:03:53 10° 308° (NW) 1,921 4.5 -9.9°
Sets 06:07:07 0° 335° (NNW) 2,826 5.6 -9.1°
